Weather History for Naples, FL

Change the Weather History Date:

Tuesday, November 13, 2012

  Actual Average Record
Temperature  
Mean Temperature 74 °F 72 °F  
Max Temperature 82 °F 82 °F 91 °F (1948)
Min Temperature 65 °F 63 °F 42 °F (1968)
Degree Days  
Heating Degree Days 0 0  
Month to date heating degree days 3 0  
Since 1 July heating degree days 4 1  
Cooling Degree Days 9 8  
Month to date cooling degree days 63 116  
Year to date cooling degree days 3904 3711  
Growing Degree Days 22 (Base 50)    
Moisture  
Dew Point 65 °F    
Average Humidity 77    
Maximum Humidity 100    
Minimum Humidity 54    
Precipitation  
Precipitation 0.00 in 0.06 in 1.03 in (1945)
Month to date precipitation 0.12 1.11  
Year to date precipitation 36.15 49.51  
Snow  
Snow 0.00 in - - ()
Month to date snowfall 0.0  
Since 1 July snowfall 0.0  
Since 1 September snowfall 0.0  
Snow Depth 0.00 in    
Sea Level Pressure  
Sea Level Pressure 30.10 in    
Wind  
Wind Speed 6 mph (NE)    
Max Wind Speed 16 mph    
Max Gust Speed 20 mph    
Visibility 10 miles    
Events      
T = Trace of Precipitation, MM = Missing Value Source: NWS Daily Summary

Daily Weather History Graph

Daily Weather History Graph

Search for Another Location

Airport:

Trip Planner

Search our weather history database for the weather conditions in past years. The results will help you decide how hot, cold, wet, or windy it might be!

Date:

Astronomy

Nov. 13, 2012 Rise Set
Actual Time 6:44 AM EST 5:38 PM EST
Civil Twilight 6:20 AM EST 6:02 PM EST
Nautical Twilight 5:52 AM EST 6:30 PM EST
Astronomical Twilight 5:24 AM EST 6:57 PM EST
Moon 6:20 AM EST (11/13) 5:32 PM EST (11/13)
Length of Visible Light 11h 42m
Length of Day
10h 53m
Waning Crescent, 0% of the Moon is Illuminated
Nov 13
Waning Crescent
Nov 13
New
Nov 20
First Quarter
Nov 28
Full
Dec 6
Last Quarter

Hourly Weather History & Observations

Time (EST) Temp. Heat Index Dew Point Humidity Pressure Visibility Wind Dir Wind Speed Gust Speed Precip Events Conditions
12:53 AM 66.9 °F - 66.0 °F 97% 30.12 in 10.0 mi NE 5.8 mph - N/A   Clear
1:53 AM 66.9 °F - 66.0 °F 97% 30.11 in 9.0 mi NE 4.6 mph - N/A   Clear
2:53 AM 66.9 °F - 66.0 °F 97% 30.10 in 10.0 mi NNE 4.6 mph - N/A   Clear
3:53 AM 66.9 °F - 66.0 °F 97% 30.11 in 9.0 mi NNE 3.5 mph - N/A   Clear
4:53 AM 66.0 °F - 64.9 °F 96% 30.10 in 9.0 mi NE 4.6 mph - N/A   Clear
5:53 AM 64.9 °F - 64.9 °F 100% 30.11 in 9.0 mi NE 4.6 mph - N/A   Clear
6:53 AM 64.9 °F - 64.0 °F 97% 30.12 in 8.0 mi NE 4.6 mph - N/A   Clear
7:53 AM 68.0 °F - 66.0 °F 93% 30.14 in 9.0 mi NNE 4.6 mph - N/A   Clear
8:53 AM 71.1 °F - 66.9 °F 87% 30.14 in 10.0 mi NE 6.9 mph - N/A   Clear
9:53 AM 73.0 °F - 66.9 °F 81% 30.15 in 10.0 mi ENE 5.8 mph - N/A   Clear
10:53 AM 77.0 °F - 68.0 °F 74% 30.14 in 10.0 mi ENE 9.2 mph - N/A   Clear
11:53 AM 80.1 °F 82.3 °F 66.9 °F 64% 30.12 in 10.0 mi NE 8.1 mph - N/A   Clear
12:53 PM 80.1 °F 81.5 °F 63.0 °F 56% 30.09 in 10.0 mi ENE 12.7 mph - N/A   Scattered Clouds
1:53 PM 81.0 °F 82.2 °F 63.0 °F 54% 30.06 in 10.0 mi NE 10.4 mph - N/A   Partly Cloudy
2:53 PM 81.0 °F 82.5 °F 64.0 °F 56% 30.06 in 10.0 mi NNE 6.9 mph - N/A   Scattered Clouds
3:53 PM 80.1 °F 81.2 °F 62.1 °F 54% 30.06 in 10.0 mi NE 8.1 mph - N/A   Scattered Clouds
4:53 PM 80.1 °F 81.7 °F 64.0 °F 58% 30.06 in 10.0 mi NE 8.1 mph - N/A   Partly Cloudy
5:53 PM 75.9 °F - 64.9 °F 69% 30.06 in 10.0 mi ENE 6.9 mph - N/A   Partly Cloudy
6:53 PM 73.0 °F - 64.9 °F 76% 30.07 in 10.0 mi ENE 5.8 mph - N/A   Clear
7:53 PM 72.0 °F - 64.9 °F 78% 30.08 in 10.0 mi NE 6.9 mph - N/A   Clear
8:53 PM 71.1 °F - 64.9 °F 81% 30.09 in 10.0 mi NNE 5.8 mph - N/A   Clear
9:53 PM 70.0 °F - 64.9 °F 84% 30.11 in 10.0 mi NE 5.8 mph - N/A   Clear
10:53 PM 69.1 °F - 66.0 °F 90% 30.12 in 10.0 mi NNE 3.5 mph - N/A   Clear
11:53 PM 69.1 °F - 64.9 °F 87% 30.11 in 10.0 mi NNE 4.6 mph - N/A   Clear